{"data":{"norad_id":61549,"epoch":"2026-09-21T06:18:30.108672Z","epoch_age_seconds":126076,"freshness":"FRESH","line1":"1 61549U 24184T   26264.26284848  .00000989  00000+0  40396-4 0  9997","line2":"2 61549  53.1642 183.8598 0001643  88.4306 271.6885 15.34401887108471","mean_motion":15.34401887,"eccentricity":0.0001643,"inclination_deg":53.1642,"raan_deg":183.8598,"arg_perigee_deg":88.4306,"mean_anomaly_deg":271.6885,"bstar":4.0396e-5,"rev_number":10847,"period_min":93.847642667817,"perigee_km":461.57368252121,"apogee_km":463.82158078117,"semimajor_km":6840.8346316512,"source":"CELESTRAK","updated_at":"2026-09-22T09:00:49.368313Z"}}